[[{"header":{"parameterUnit":"m.s-1","parameterCategory":1,"la1":30.2991,"la2":30.254,"lo1":-89.0895,"lo2":-89.0444,"dy":0.0017,"dx":0.0017,"nx":28,"ny":28,"refTime":"2023-09-08T09:00:00:Z","depth":0,"parameterNumber":2,"parameterNumberName":"U-component_of_WINDS"},"data":[0,0,0,0,0,0,0,0,0,0,0,0,0,0,0,0,0,0,0,0,0,0,0,0,0,0,0,0,0,0,0,0,0,0,0,0,0,0,0,0,0,0,0,0,0,0,0,0,0,0,0,0,0,0,0,0,0,0,-2.2061,-2.206,0,-2.1999,-2.1998,-2.1998,-2.1858,-2.1855,-2.1852,-2.1849,-2.1789,-2.179,-2.1791,0,0,0,0,0,0,0,0,0,0,0,0,0,-2.206,-2.2061,-2.2061,-2.206,-2.206,-2.1999,-2.1998,-2.1997,-2.1858,-2.1855,-2.1851,-2.1848,-2.1788,-2.1789,-2.1791,0,0,0,0,0,0,0,0,0,0,0,0,0,-2.2036,-2.2061,-2.2061,-2.1983,-2.1975,-2.1999,-2.1998,-2.1997,-2.1859,-2.1855,-2.185,-2.1846,-2.1788,-2.1789,-2.1791,-2.1887,0,0,-2.1796,-2.1796,0,0,0,0,0,0,0,0,-2.2037,-2.2036,-2.1995,-2.1988,-2.198,-2.1932,-2.1975,-2.196,-2.186,-2.1903,-2.1849,-2.1844,-2.184,-2.1837,-2.1835,-2.1884,-2.1881,-2.1796,-2.1797,-2.1798,-2.1798,0,0,0,0,0,0,0,-2.2039,-2.2038,-2.2037,-2.1995,-2.1985,-2.1951,-2.1943,-2.1972,-2.1897,-2.1899,-2.1889,-2.1883,-2.1835,-2.1834,-2.1832,-2.1881,-2.1796,-2.1797,-2.1798,-2.1799,-2.2003,-2.2007,0,0,0,0,0,0,-2.2052,-2.204,-2.2039,-2.2035,-2.1998,-2.1955,-2.1945,-2.1952,-2.1896,-2.1883,-2.1887,-2.1877,-2.1833,-2.1831,-2.183,-2.1937,-2.1797,-2.1799,-2.18,-2.1999,-2.2004,-2.2009,0,0,0,0,0,0,-2.2053,-2.2053,-2.2041,-2.2035,-2.203,-2.1959,-2.1967,-2.1953,-2.1951,-2.1887,-2.1873,-2.19,-2.1829,-2.1827,-2.1873,-2.1933,-2.18,-2.1801,-2.1993,-2.2,-2.2007,-2.2154,0,0,0,0,0,0,-2.2053,-2.2054,-2.209,-2.2036,-2.2031,-2.2086,-2.1971,-2.1955,-2.1954,-2.194,-2.1895,-2.1883,-2.1826,-2.1871,-2.1875,-2.1933,-2.1802,-2.1988,-2.1997,-2.2004,-2.2144,-2.2165,-2.2184,0,0,0,0,0,-2.2054,-2.2135,-2.2093,-2.2093,-2.2075,-2.209,-2.2087,-2.2019,-2.1959,-2.1995,-2.1953,-2.1885,-2.1926,-2.1877,-2.188,-2.194,-2.1984,-2.1994,-2.2004,-2.2135,-2.2161,-2.2183,0,0,0,0,0,0,-2.22,-2.2127,-2.2079,-2.2146,-2.2125,-2.2066,-2.2109,-2.2049,-2.2045,-2.2033,-2.1949,-2.194,-2.1997,-2.1972,-2.1919,-2.2028,-2.1944,-2.1955,-2.2043,-2.2067,-2.2086,-2.2092,-2.1804,0,0,0,0,0,-2.224,-2.2257,-2.2193,-2.2258,-2.225,-2.2182,-2.2186,-2.2134,-2.211,-2.2101,-2.2062,-2.2041,-2.2049,-2.2056,-2.206,-2.2139,-2.2127,-2.2181,-2.2201,-2.2218,-2.2229,-2.2267,-2.229,-2.2042,-2.2042,-2.2042,0,0,-2.2323,-2.2285,-2.2302,-2.2286,-2.2264,-2.2285,-2.2175,-2.2202,-2.2216,-2.2105,-2.2145,-2.2116,-2.2087,-2.215,-2.2175,-2.2131,-2.2294,-2.2231,-2.2244,-2.2246,-2.228,-2.2303,-2.2324,-2.2049,-2.2048,-2.2047,0,0,-2.2484,-2.2458,-2.2508,-2.2487,-2.2454,-2.2408,-2.242,-2.237,-2.2346,-2.2384,-2.2301,-2.2316,-2.2332,-2.2314,-2.2308,-2.2459,-2.2396,-2.2463,-2.2568,-2.2606,-2.2626,-2.2642,-2.2696,-2.2716,-2.2474,-2.2474,-2.2474,0,-2.2592,-2.2619,-2.2542,-2.2573,-2.2569,-2.2467,-2.2517,-2.2501,-2.2472,-2.2471,-2.2421,-2.2437,-2.2411,-2.2467,-2.2504,-2.2502,-2.2513,-2.2469,-2.2629,-2.2645,-2.266,-2.271,-2.273,-2.2482,-2.2482,-2.2481,-2.248,0,-2.2752,-2.2772,-2.2817,-2.2789,-2.2789,-2.2831,-2.276,-2.2769,-2.2717,-2.2676,-2.2716,-2.268,-2.2674,-2.2683,-2.2634,-2.2732,-2.2705,-2.2644,-2.2557,-2.2693,-2.2739,-2.2757,-2.2494,-2.2491,-2.2489,-2.2487,0,0,-2.3007,-2.2934,-2.2952,-2.2937,-2.2892,-2.2906,-2.2941,-2.2934,-2.2943,-2.2926,-2.2953,-2.2968,-2.2909,-2.2902,-2.2849,-2.2883,-2.3004,-2.2816,-2.2814,-2.2852,-2.3108,-2.3156,-2.3179,-2.2961,-2.2964,-2.2967,-2.3111,0,-2.3158,-2.3214,-2.3145,-2.3216,-2.3233,-2.3135,-2.3165,-2.3141,-2.3103,-2.3111,-2.3069,-2.308,-2.3003,-2.2997,-2.3026,-2.2983,-2.3054,-2.2972,-2.2986,-2.2987,-2.2997,-2.3203,-2.3253,-2.3391,-2.3128,-2.3131,-2.3133,0,-2.3343,-2.3332,-2.3405,-2.3352,-2.3357,-2.3386,-2.3372,-2.3382,-2.3351,-2.3321,-2.3311,-2.3247,-2.3277,-2.3192,-2.3233,-2.3179,-2.318,-2.3159,-2.3163,-2.3162,-2.3069,-2.3208,-2.3433,-2.3454,-2.3161,-2.3159,-2.3157,0,-2.3521,-2.3524,-2.3568,-2.3558,-2.3499,-2.3521,-2.3498,-2.3462,-2.3462,-2.345,-2.3448,-2.3441,-2.3438,-2.3433,-2.3368,-2.3312,-2.3417,-2.3327,-2.3392,-2.3394,-2.342,-2.3419,-2.3649,-2.3421,-2.342,-2.342,-2.3419,0,-2.3697,-2.3746,-2.3647,-2.3674,-2.3724,-2.3643,-2.3696,-2.3662,-2.3632,-2.365,-2.3565,-2.3584,-2.3497,-2.3506,-2.3456,-2.3497,-2.3496,-2.3472,-2.3458,-2.348,-2.3483,-2.348,-2.3469,-2.3425,-2.3424,-2.3423,-2.3422,0,-2.3906,-2.3841,-2.3882,-2.3821,-2.3807,-2.3847,-2.3795,-2.3817,-2.3772,-2.3796,-2.3797,-2.3727,-2.3733,-2.3668,-2.3662,-2.3628,-2.3693,-2.3662,-2.3703,-2.3693,-2.3763,-2.3757,-2.3999,-2.4027,-2.3781,-2.3784,-2.3786,0,-2.4023,-2.4058,-2.4,-2.4005,-2.3985,-2.3996,-2.3994,-2.3915,-2.3916,-2.3883,-2.3909,-2.3908,-2.3903,-2.3918,-2.3867,-2.3862,-2.383,-2.3915,-2.3829,-2.385,-2.3831,-2.383,-2.3833,-2.3934,-2.3937,-2.394,-2.3942,0,-2.4238,-2.4204,-2.4204,-2.4193,-2.4192,-2.418,-2.4162,-2.4171,-2.4085,-2.4091,-2.4096,-2.4092,-2.4085,-2.4085,-2.4069,-2.4045,-2.398,-2.3969,-2.3984,-2.4007,-2.4029,-2.4018,-2.3753,-2.3964,-2.3962,-2.396,-2.3959,-2.3958,-2.4405,-2.443,-2.4393,-2.4395,-2.4372,-2.4357,-2.4374,-2.433,-2.4332,-2.432,-2.4273,-2.4286,-2.4252,-2.4224,-2.4205,-2.4213,-2.4172,-2.4194,-2.42,-2.4206,-2.4219,-2.4027,-2.421,-2.421,-2.4209,-2.4208,-2.4208,0,-2.4615,-2.4585,-2.4588,-2.4564,-2.4566,-2.4502,-2.4478,-2.4484,-2.4496,-2.4469,-2.4466,-2.447,-2.4469,-2.4417,-2.4409,-2.4426,-2.4396,-2.4427,-2.4425,-2.442,-2.4257,-2.4244,-2.4451,-2.4451,-2.4451,-2.4451,-2.4451,-2.4451,-2.4725,-2.4764,-2.4725,-2.4752,-2.4721,-2.4732,-2.4724,-2.4709,-2.4687,-2.4696,-2.4694,-2.4659,-2.4621,-2.461,-2.4606,-2.459,-2.4591,-2.4633,-2.4607,-2.4456,-2.4432,-2.441,-2.4398,-2.4634,-2.4634,-2.477,-2.4771,-2.4772]},{"header":{"parameterUnit":"m.s-1","parameterCategory":1,"la1":30.2991,"la2":30.254,"lo1":-89.0895,"lo2":-89.0444,"dy":0.0017,"dx":0.0017,"nx":28,"ny":28,"refTime":"2023-09-08T09:00:00:Z","depth":0,"parameterNumber":3,"parameterNumberName":"V-component_of_WINDS"},"data":[0,0,0,0,0,0,0,0,0,0,0,0,0,0,0,0,0,0,0,0,0,0,0,0,0,0,0,0,0,0,0,0,0,0,0,0,0,0,0,0,0,0,0,0,0,0,0,0,0,0,0,0,0,0,0,0,0,0,-2.8462,-2.8463,0,-2.8538,-2.8539,-2.854,-2.8527,-2.8526,-2.8525,-2.8524,-2.8598,-2.8601,-2.8604,0,0,0,0,0,0,0,0,0,0,0,0,0,-2.83,-2.8304,-2.8462,-2.8463,-2.8464,-2.8538,-2.8539,-2.854,-2.8528,-2.8526,-2.8524,-2.8523,-2.8597,-2.86,-2.8604,0,0,0,0,0,0,0,0,0,0,0,0,0,-2.8373,-2.8305,-2.8462,-2.8467,-2.8468,-2.8538,-2.8539,-2.854,-2.8528,-2.8526,-2.8524,-2.8522,-2.8595,-2.86,-2.8605,-2.8673,0,0,-2.8619,-2.8621,0,0,0,0,0,0,0,0,-2.8369,-2.8379,-2.8465,-2.8466,-2.8468,-2.8521,-2.8509,-2.8585,-2.8528,-2.8505,-2.8524,-2.8521,-2.8574,-2.858,-2.8598,-2.8677,-2.868,-2.862,-2.8623,-2.8625,-2.8626,0,0,0,0,0,0,0,-2.8364,-2.8375,-2.8492,-2.8466,-2.8468,-2.8463,-2.8471,-2.8523,-2.8549,-2.8507,-2.8506,-2.8516,-2.8574,-2.8594,-2.86,-2.8681,-2.862,-2.8624,-2.8627,-2.8629,-2.8817,-2.8819,0,0,0,0,0,0,-2.8358,-2.8371,-2.8489,-2.8494,-2.8413,-2.8468,-2.8477,-2.8506,-2.8549,-2.8553,-2.8517,-2.8515,-2.8587,-2.8595,-2.8603,-2.8684,-2.8625,-2.8629,-2.8632,-2.8815,-2.8817,-2.882,0,0,0,0,0,0,-2.8355,-2.8369,-2.8486,-2.8433,-2.8447,-2.8473,-2.8505,-2.8509,-2.8529,-2.8556,-2.856,-2.8533,-2.8585,-2.8596,-2.8656,-2.8687,-2.8631,-2.8636,-2.8812,-2.8816,-2.8819,-2.8849,0,0,0,0,0,0,-2.835,-2.8368,-2.8395,-2.8433,-2.845,-2.854,-2.8507,-2.8511,-2.8537,-2.8535,-2.8573,-2.8577,-2.8585,-2.8649,-2.866,-2.8692,-2.8639,-2.881,-2.8814,-2.8818,-2.8845,-2.8853,-2.8859,0,0,0,0,0,-2.8344,-2.84,-2.8397,-2.8411,-2.8485,-2.8541,-2.8551,-2.856,-2.854,-2.8567,-2.8584,-2.8576,-2.8682,-2.8655,-2.8668,-2.8702,-2.8808,-2.8813,-2.8817,-2.8842,-2.8851,-2.8859,0,0,0,0,0,0,-2.8364,-2.8405,-2.8402,-2.8472,-2.8503,-2.8539,-2.8574,-2.857,-2.8606,-2.8602,-2.8611,-2.8619,-2.868,-2.8697,-2.8666,-2.8769,-2.8742,-2.8749,-2.8756,-2.8765,-2.8772,-2.8766,-2.8643,0,0,0,0,0,-2.8377,-2.842,-2.8453,-2.8512,-2.8528,-2.8548,-2.8573,-2.8577,-2.861,-2.8622,-2.8644,-2.8675,-2.8715,-2.8741,-2.8779,-2.8848,-2.8855,-2.8877,-2.8884,-2.889,-2.8896,-2.8932,-2.8941,-2.8836,-2.8836,-2.8835,0,0,-2.8403,-2.8431,-2.8458,-2.8517,-2.8541,-2.8584,-2.8559,-2.8606,-2.8638,-2.8629,-2.8687,-2.8704,-2.8738,-2.8802,-2.8831,-2.8818,-2.8927,-2.8896,-2.89,-2.8904,-2.8938,-2.8948,-2.8956,-2.8839,-2.8838,-2.8838,0,0,-2.8472,-2.8499,-2.855,-2.8575,-2.8613,-2.8626,-2.8639,-2.8675,-2.8686,-2.8745,-2.8738,-2.8775,-2.8844,-2.8869,-2.889,-2.8967,-2.896,-2.898,-2.9016,-2.905,-2.9058,-2.9066,-2.9092,-2.9101,-2.8986,-2.8986,-2.8986,0,-2.85,-2.8566,-2.8576,-2.8624,-2.8649,-2.8644,-2.8694,-2.8718,-2.8766,-2.8783,-2.8768,-2.8854,-2.8877,-2.8945,-2.8964,-2.8982,-2.8995,-2.8975,-2.9057,-2.9064,-2.9071,-2.9096,-2.9106,-2.8988,-2.8988,-2.8987,-2.8987,0,-2.8597,-2.8643,-2.8679,-2.8727,-2.8756,-2.8805,-2.8821,-2.8849,-2.885,-2.8864,-2.8922,-2.8949,-2.8992,-2.9009,-2.9011,-2.9078,-2.9068,-2.9055,-2.9027,-2.9083,-2.9106,-2.9116,-2.8991,-2.899,-2.8989,-2.8989,0,0,-2.8681,-2.8733,-2.8746,-2.8767,-2.8808,-2.8843,-2.8891,-2.8934,-2.8957,-2.899,-2.9029,-2.9087,-2.9075,-2.9099,-2.9103,-2.9134,-2.9191,-2.9116,-2.9117,-2.9128,-2.9264,-2.9273,-2.9284,-2.9187,-2.9189,-2.919,-2.926,0,-2.8754,-2.8839,-2.8849,-2.8925,-2.8966,-2.8961,-2.9002,-2.9031,-2.9045,-2.908,-2.9095,-2.9136,-2.9117,-2.9132,-2.9162,-2.9178,-2.9218,-2.9173,-2.9221,-2.9222,-2.9211,-2.9296,-2.9306,-2.9371,-2.927,-2.9271,-2.9273,0,-2.885,-2.8886,-2.8966,-2.9,-2.9018,-2.9055,-2.9094,-2.9129,-2.9161,-2.9169,-2.9195,-2.9195,-2.9242,-2.9213,-2.9277,-2.9246,-2.9266,-2.9277,-2.9279,-2.9283,-2.925,-2.9301,-2.9393,-2.9402,-2.9287,-2.9286,-2.9285,0,-2.8901,-2.897,-2.9027,-2.9045,-2.9086,-2.9112,-2.913,-2.916,-2.9185,-2.9219,-2.9235,-2.9274,-2.9294,-2.9323,-2.9333,-2.9311,-2.9395,-2.9368,-2.9402,-2.9401,-2.9419,-2.9417,-2.9513,-2.9434,-2.9434,-2.9434,-2.9433,0,-2.898,-2.9029,-2.905,-2.9085,-2.9138,-2.9148,-2.92,-2.9217,-2.9243,-2.928,-2.9278,-2.9311,-2.9323,-2.9358,-2.9365,-2.9416,-2.9425,-2.9432,-2.9433,-2.9431,-2.943,-2.9443,-2.9439,-2.9436,-2.9436,-2.9435,-2.9435,0,-2.9047,-2.9063,-2.9124,-2.9158,-2.9168,-2.9206,-2.9234,-2.9266,-2.928,-2.9325,-2.9337,-2.9357,-2.9398,-2.9411,-2.946,-2.9465,-2.9523,-2.9521,-2.9513,-2.9513,-2.9545,-2.9541,-2.9652,-2.9666,-2.9579,-2.958,-2.958,0,-2.9096,-2.9133,-2.9171,-2.9196,-2.9215,-2.9255,-2.9281,-2.9291,-2.9317,-2.9355,-2.9383,-2.9423,-2.9457,-2.9522,-2.954,-2.9577,-2.9575,-2.9611,-2.958,-2.9577,-2.9573,-2.9571,-2.9573,-2.9616,-2.9617,-2.9618,-2.9619,0,-2.918,-2.9186,-2.9223,-2.9263,-2.9294,-2.9325,-2.9356,-2.9376,-2.939,-2.942,-2.9462,-2.9488,-2.9538,-2.9578,-2.9615,-2.9632,-2.9627,-2.9628,-2.9638,-2.9636,-2.9629,-2.9632,-2.9527,-2.9626,-2.9625,-2.9624,-2.9624,-2.9624,-2.9238,-2.927,-2.9302,-2.9343,-2.9367,-2.9396,-2.9427,-2.9444,-2.948,-2.9523,-2.9527,-2.9572,-2.9601,-2.9651,-2.9669,-2.9704,-2.9693,-2.9707,-2.971,-2.9713,-2.9715,-2.9625,-2.9711,-2.9711,-2.971,-2.971,-2.971,0,-2.9321,-2.9341,-2.9379,-2.9422,-2.9453,-2.9448,-2.9481,-2.9507,-2.9547,-2.9575,-2.9608,-2.9656,-2.9694,-2.9715,-2.9753,-2.9776,-2.9774,-2.9785,-2.9783,-2.9786,-2.9724,-2.9711,-2.9786,-2.9786,-2.9786,-2.9786,-2.9786,-2.9786,-2.9368,-2.9422,-2.9431,-2.9496,-2.9515,-2.9561,-2.958,-2.9605,-2.9627,-2.9681,-2.9713,-2.9727,-2.9751,-2.9791,-2.9825,-2.983,-2.9843,-2.9855,-2.9858,-2.9799,-2.9791,-2.9784,-2.9772,-2.9858,-2.9858,-2.9918,-2.9918,-2.9919]}]]